Toledo Metcalf, OH

5:12 PM EDT on June 28, 2017 (GMT -0400)
Metcalf

Weather History for KTDZ - January, 2014

Change the Weather History Date:

Monday, January 27, 2014

  Actual Average (KTOL) Record (KTOL)
Temperature  
Mean Temperature 14 °F -  
Max Temperature 30 °F 29 °F 66 °F (1916)
Min Temperature -4 °F 14 °F -7 °F (1936)
Degree Days  
Heating Degree Days 51    
Moisture  
Dew Point 6 °F    
Average Humidity 71    
Maximum Humidity 85    
Minimum Humidity 58    
Precipitation  
Precipitation 0.02 in - - ()
Sea Level Pressure  
Sea Level Pressure 29.88 in    
Wind  
Wind Speed 24 mph (West)    
Max Wind Speed 36 mph    
Max Gust Speed 48 mph    
Visibility 4 miles    
Events Fog , Snow    
Averages and records for this station are not official NWS values.
T = Trace of Precipitation, MM = Missing Value Source: NWS Daily Summary

Daily Weather History Graph

Daily Weather History Graph

Search for Another Location

Airport or City:

Trip Planner

Search our weather history database for the weather conditions in past years. The results will help you decide how hot, cold, wet, or windy it might be!

Date:

Astronomy

Jan. 27, 2014 Rise Set
Actual Time 7:50 AM EST 5:43 PM EST
Civil Twilight 7:20 AM EST 6:13 PM EST
Nautical Twilight 6:47 AM EST 6:46 PM EST
Astronomical Twilight 6:14 AM EST 7:19 PM EST
Moon 4:31 AM EST (1/27) 2:27 PM EST (1/27)
Length of Visible Light 10h 52m
Length of Day
9h 53m
Waning Crescent, 15% of the Moon is Illuminated
Jan 27
Waning Crescent
Jan 30
New
Feb 6
First Quarter
Feb 14
Full
Feb 22
Last Quarter

Hourly Weather History & Observations

Time (EST) Temp. Windchill Dew Point Humidity Pressure Visibility Wind Dir Wind Speed Gust Speed Precip Events Conditions
12:15 AM 30.9 °F 18.4 °F 23.0 °F 72% 29.44 in 8.0 mi West 20.7 mph 27.6 mph 0.00 in   Overcast
12:49 AM 28.4 °F 13.8 °F 23.0 °F 80% 29.46 in 3.0 mi West 25.3 mph 33.4 mph 0.01 in Snow Light Snow
12:53 AM 28.9 °F 13.0 °F 23.0 °F 78% 29.49 in 1.5 mi West 32.2 mph 41.4 mph 0.01 in Snow Light Snow
1:01 AM 28.0 °F 12.5 °F 23.0 °F 81% 29.48 in 0.8 mi WNW 28.8 mph 41.4 mph 0.00 in Snow Light Snow
1:08 AM 27.0 °F 9.8 °F 23.0 °F 85% 29.50 in 0.5 mi West 34.5 mph 44.9 mph 0.00 in Fog , Snow Snow
1:12 AM 26.1 °F 8.4 °F 21.0 °F 81% 29.50 in 0.5 mi West 35.7 mph 48.3 mph 0.00 in Snow Snow
1:34 AM 24.1 °F 7.7 °F 19.0 °F 81% 29.52 in 1.0 mi West 26.5 mph 38.0 mph 0.01 in Snow Light Snow
1:53 AM 23.0 °F 5.1 °F 16.0 °F 74% 29.57 in 0.8 mi West 31.1 mph 47.2 mph 0.01 in Snow Light Snow
1:58 AM 23.0 °F 6.3 °F 16.0 °F 74% 29.55 in 1.2 mi West 26.5 mph 39.1 mph 0.00 in Snow Light Snow
2:10 AM 21.9 °F 4.8 °F 14.0 °F 72% 29.55 in 2.0 mi West 26.5 mph 38.0 mph 0.00 in Snow Light Snow
2:18 AM 21.0 °F 3.3 °F 12.0 °F 68% 29.56 in 1.5 mi West 27.6 mph 41.4 mph 0.00 in Snow Light Snow
2:40 AM 19.9 °F 1.3 °F 9.0 °F 62% 29.58 in 2.0 mi West 29.9 mph 41.4 mph 0.00 in   Overcast
2:51 AM 19.4 °F 1.4 °F 8.6 °F 63% 29.60 in 1.8 mi West 26.5 mph 42.6 mph 0.00 in   Overcast
2:53 AM 19.9 °F 2.2 °F 8.1 °F 60% 29.62 in 2.0 mi West 26.5 mph 42.6 mph 0.00 in   Overcast
3:11 AM 19.0 °F -1.1 °F 9.0 °F 65% 29.63 in 1.0 mi West 34.5 mph 48.3 mph 0.00 in Snow Light Snow
3:20 AM 18.0 °F -1.7 °F 8.1 °F 65% 29.64 in 0.8 mi West 31.1 mph 46.0 mph 0.00 in Snow Light Snow
3:25 AM 18.0 °F -1.1 °F 8.1 °F 65% 29.64 in 1.2 mi West 28.8 mph 38.0 mph 0.00 in Snow Light Snow
3:37 AM 18.0 °F -1.4 °F 8.1 °F 65% 29.66 in 3.0 mi West 29.9 mph 35.7 mph 0.00 in   Overcast
3:51 AM 17.6 °F -1.6 °F 8.6 °F 68% 29.68 in 1.8 mi West 28.8 mph 39.1 mph 0.00 in Snow Light Snow
3:53 AM 17.1 °F -2.7 °F 9.0 °F 71% 29.71 in 1.5 mi West 29.9 mph 38.0 mph 0.00 in Snow Light Snow
4:01 AM 17.1 °F 0.1 °F 9.0 °F 71% 29.69 in 1.8 mi West 20.7 mph 32.2 mph 0.00 in Snow Light Snow
4:07 AM 17.1 °F 0.6 °F 10.9 °F 77% 29.69 in 0.8 mi West 19.6 mph 28.8 mph 0.00 in Snow Light Snow
4:16 AM 15.1 °F -5.9 °F 10.9 °F 84% 29.72 in 0.5 mi NW 32.2 mph 38.0 mph 0.00 in Fog , Snow Snow
4:35 AM 14.0 °F -4.3 °F 9.0 °F 80% 29.75 in 1.0 mi NW 21.9 mph 32.2 mph 0.00 in Snow Light Snow
4:45 AM 14.0 °F -3.9 °F 8.1 °F 77% 29.77 in 1.2 mi NW 20.7 mph 29.9 mph 0.00 in Snow Light Snow
4:53 AM 14.0 °F -5.1 °F 8.1 °F 77% 29.80 in 1.0 mi WNW 24.2 mph 34.5 mph 0.00 in Snow Light Snow
5:05 AM 14.0 °F -5.1 °F 7.0 °F 74% 29.79 in 2.5 mi WNW 24.2 mph 34.5 mph 0.00 in Snow Light Snow
5:39 AM 12.9 °F -6.5 °F 3.0 °F 65% 29.82 in 4.0 mi West 24.2 mph 32.2 mph 0.00 in   Clear
5:53 AM 12.0 °F -4.5 °F 1.9 °F 64% 29.87 in 10.0 mi West 16.1 mph - 0.00 in   Clear
6:53 AM 10.9 °F -5.9 °F 1.9 °F 67% 29.92 in 10.0 mi West 16.1 mph - N/A   Clear
7:22 AM 12.0 °F -4.5 °F 5.0 °F 73% 29.92 in 2.5 mi West 16.1 mph - 0.00 in Snow Light Snow
7:38 AM 10.9 °F -6.5 °F 3.9 °F 73% 29.94 in 4.0 mi West 17.3 mph 26.5 mph 0.00 in Snow Light Snow
7:53 AM 10.9 °F -5.9 °F 3.9 °F 73% 29.98 in 3.0 mi West 16.1 mph - 0.00 in Snow Light Snow
8:24 AM 10.0 °F -5.9 °F 3.0 °F 73% 29.98 in 1.8 mi West 13.8 mph - 0.00 in Snow Light Snow
8:53 AM 10.0 °F -7.1 °F 3.9 °F 76% 30.03 in 1.2 mi West 16.1 mph - 0.00 in Snow Light Snow
9:07 AM 10.0 °F -5.9 °F 3.9 °F 76% 30.01 in 0.8 mi West 13.8 mph - 0.00 in Snow Light Snow
9:27 AM 9.0 °F -10.0 °F 3.0 °F 77% 30.03 in 0.5 mi West 19.6 mph - 0.00 in Snow Snow
9:53 AM 9.0 °F -10.0 °F 3.0 °F 77% 30.08 in 0.5 mi West 19.6 mph - 0.00 in Snow Snow
10:07 AM 9.0 °F -7.3 °F 3.0 °F 77% 30.06 in 1.2 mi West 13.8 mph - 0.00 in Snow Light Snow
10:19 AM 9.0 °F -9.5 °F 3.0 °F 77% 30.06 in 1.2 mi West 18.4 mph - 0.00 in Snow Light Snow
10:26 AM 9.0 °F -9.0 °F 3.0 °F 77% 30.06 in 1.0 mi West 17.3 mph - 0.00 in Snow Light Snow
10:33 AM 10.0 °F -7.1 °F 3.0 °F 73% 30.07 in 2.0 mi West 16.1 mph - 0.00 in Snow Light Snow
10:42 AM 10.0 °F -7.1 °F 1.9 °F 70% 30.07 in 6.0 mi West 16.1 mph - 0.00 in Snow Light Snow
10:53 AM 10.0 °F -7.1 °F 3.0 °F 73% 30.11 in 5.0 mi West 16.1 mph - 0.00 in Snow Light Snow
11:13 AM 10.0 °F -8.1 °F 1.9 °F 70% 30.08 in 9.0 mi WSW 18.4 mph - 0.00 in   Mostly Cloudy
11:35 AM 10.0 °F -8.1 °F 3.0 °F 73% 30.08 in 2.5 mi West 18.4 mph - 0.00 in Snow Light Snow
11:44 AM 10.0 °F -7.1 °F 1.9 °F 70% 30.09 in 8.0 mi WSW 16.1 mph - 0.00 in   Partly Cloudy
11:53 AM 10.9 °F -5.9 °F 1.9 °F 67% 30.12 in 10.0 mi West 16.1 mph - 0.00 in   Partly Cloudy
12:53 PM 10.9 °F -6.5 °F 1.0 °F 64% 30.12 in 7.0 mi WSW 17.3 mph - N/A   Clear
1:53 PM 10.9 °F -8.3 °F -0.9 °F 59% 30.12 in 4.0 mi West 21.9 mph - N/A   Haze
2:53 PM 10.0 °F -7.6 °F -2.0 °F 58% 30.14 in 7.0 mi West 17.3 mph 28.8 mph N/A   Clear
3:53 PM 9.0 °F -11.0 °F -2.9 °F 59% 30.17 in 9.0 mi West 21.9 mph 28.8 mph N/A   Clear
4:53 PM 6.1 °F -13.8 °F -5.1 °F 60% 30.20 in 6.0 mi West 19.6 mph 29.9 mph N/A   Haze
5:53 PM 3.9 °F -15.0 °F -7.1 °F 60% 30.23 in 10.0 mi West 16.1 mph 24.2 mph N/A   Clear
6:53 PM 1.9 °F -19.2 °F -9.0 °F 60% 30.27 in 10.0 mi West 19.6 mph - N/A   Clear
7:53 PM 1.0 °F -19.3 °F -9.9 °F 60% 30.30 in 10.0 mi West 17.3 mph 26.5 mph N/A   Clear
8:53 PM -0.0 °F -20.7 °F -11.0 °F 60% 30.33 in 10.0 mi West 17.3 mph - N/A   Clear
9:53 PM -2.0 °F -21.9 °F -11.0 °F 66% 30.36 in 10.0 mi West 15.0 mph - N/A   Clear
10:53 PM -2.9 °F -20.8 °F -11.0 °F 68% 30.38 in 10.0 mi WSW 11.5 mph - N/A   Clear
11:53 PM -4.0 °F -21.2 °F -11.9 °F 69% 30.40 in 10.0 mi WSW 10.4 mph - N/A   Clear